This demonstration page uses our WeatherBlox Daily Observations layout. Learn more.

Left ArrowRight Arrow

36.17497, -115.13722

Hourly Observations for June 26, 2022

Temp ( °F °C ) Dew Point ( °F °C ) Humidity (%) Winds ( mph kmh ) Pressure ( in mb ) Visibility ( mi km ) Precip ( " mm )
12:53 am 00:53 Clear 92 33.3 35 1.7 13 13 Calm 29.88 1012 10 16 0.00 0.00
1:53 am 01:53 Clear 89 31.7 40 4.4 18 18 Calm 29.89 1012 10 16 0.00 0.00
2:53 am 02:53 Clear 86 30 41 5 20 20 WNW 5 7 29.90 1013 10 16 0.00 0.00
3:53 am 03:53 Clear 83 28.3 41 5 23 23 NW 6 9 29.91 1013 10 16 0.00 0.00
4:53 am 04:53 Clear 84 28.9 41 5 22 22 ENE 6 9 29.92 1013 10 16 0.00 0.00
5:53 am 05:53 Sunny 82 27.8 41 5 23 23 WNW 6 9 29.94 1014 10 16 0.00 0.00
6:53 am 06:53 Sunny 86 30 43 6.1 22 22 N 6 9 29.96 1015 10 16 0.00 0.00
7:53 am 07:53 Sunny 91 32.8 40 4.4 17 17 ENE 3 6 29.99 1016 10 16 0.00 0.00
8:53 am 08:53 Sunny 94 34.4 45 7.2 18 18 E 8 13 30.00 1016 10 16 0.00 0.00
9:53 am 09:53 Sunny 96 35.6 47 8.3 19 19 E 10 17 29.99 1016 10 16 0.00 0.00
10:53 am 10:53 Sunny 97 36.1 47 8.3 18 18 VRB 6 9 30.00 1016 10 16 0.00 0.00
11:53 am 11:53 Sunny 99 37.2 44 6.7 15 15 undefined N/A 29.98 1015 10 16 0.00 0.00
12:53 pm 12:53 Sunny 101 38.3 42 5.6 13 13 SSE 6 9 29.95 1014 10 16 0.00 0.00
1:53 pm 13:53 Sunny 102 38.9 42 5.6 13 13 VRB 3 6 29.93 1014 10 16 0.00 0.00
2:53 pm 14:53 Sunny 104 40 40 4.4 11 11 VRB 3 6 29.91 1013 10 16 0.00 0.00
3:53 pm 15:53 Sunny 105 40.6 37 2.8 10 10 VRB 5 7 29.89 1012 10 16 0.00 0.00
4:53 pm 16:53 Sunny 107 41.7 36 2.2 9 9 NE 9 15 29.86 1011 10 16 0.00 0.00
5:53 pm 17:53 Sunny 106 41.1 35 1.7 9 9 undefined N/A 29.86 1011 10 16 0.00 0.00
6:53 pm 18:53 Sunny 104 40 35 1.7 9 9 VRB 6 9 29.86 1011 10 16 0.00 0.00
7:53 pm 19:53 Sunny 103 39.4 35 1.7 9 9 ESE 7 11 29.87 1012 10 16 0.00 0.00
8:53 pm 20:53 Clear 101 38.3 38 3.3 11 11 SE 6 9 29.90 1012 10 16 0.00 0.00
9:53 pm 21:53 Clear 100 37.8 39 3.9 12 12 E 13 20 29.94 1014 10 16 0.00 0.00
10:53 pm 22:53 Clear 95 35 49 9.4 21 21 ESE 17 28 29.95 1014 10 16 0.00 0.00
11:53 pm 23:53 Clear 93 33.9 52 11.1 25 25 SSE 15 24 29.97 1015 10 16 0.00 0.00

Powered by AerisWeather